GW5558 Weather Reports


Display with metric or nautical units.
time (UTC)temp
F
wind
direction
speed
MPH
gust
MPH
rain 1hr
in
rain 24hr
in
rain mn
in
humidity
%
barometer
mb
20260902122921 73 272 1.0 3.0 0.00 0.18 0.01 53 1019.7
20260902122321 73 201 2.0 3.0 0.00 0.18 0.01 52 1019.8
20260902121721 72 271 3.0 3.0 0.00 0.18 0.01 56 1019.8
20260902121220 70 265 1.0 2.0 0.00 0.18 0.01 55 1019.8
20260902120621 72 68 0.0 1.0 0.00 0.18 0.01 55 1019.9
20260902120022 74 110 5.0 6.0 0.00 0.18 0.01 52 1019.9
20260902115421 71 254 2.0 3.0 0.00 0.18 0.01 55 1020.2
20260902114821 70 256 2.0 4.0 0.00 0.18 0.01 56 1020.2
20260902114221 70 242 6.0 8.0 0.00 0.18 0.01 57 1020.3
20260902113624 70 244 0.0 3.0 0.00 0.18 0.01 59 1020.2
20260902113021 71 218 2.0 3.0 0.00 0.18 0.01 58 1020.2
20260902112421 71 163 1.0 2.0 0.00 0.18 0.01 56 1020.3
20260902111920 71 279 3.0 3.0 0.00 0.18 0.01 55 1020.3
20260902111321 70 185 1.0 3.0 0.00 0.18 0.01 55 1020.2
20260902110820 71 213 4.0 6.0 0.00 0.18 0.01 56 1020.3
20260902110225 71 220 2.0 4.0 0.00 0.18 0.01 57 1020.4
20260902105622 71 219 2.0 3.0 0.00 0.18 0.01 60 1020.5
20260902105121 69 182 0.0 2.0 0.00 0.18 0.01 59 1020.4
20260902104522 69 214 2.0 2.0 0.00 0.18 0.01 57 1020.7
20260902104022 69 209 1.0 3.0 0.00 0.18 0.01 60 1020.5
20260902103522 69 217 2.0 3.0 0.00 0.18 0.01 59 1020.6
20260902102924 69 224 1.0 7.0 0.00 0.18 0.01 60 1020.7
20260902102421 68 216 1.0 3.0 0.00 0.18 0.01 58 1020.9
20260902101821 68 203 0.0 2.0 0.00 0.18 0.01 60 1020.9
20260902101221 68 231 2.0 3.0 0.00 0.18 0.01 59 1020.8
20260902100624 68 217 2.0 3.0 0.00 0.18 0.01 59 1020.9
20260902100122 68 220 2.0 4.0 0.00 0.18 0.01 61 1020.8
20260902095621 68 217 2.0 3.0 0.00 0.18 0.01 65 1020.8
20260902095121 68 193 2.0 4.0 0.00 0.18 0.01 63 1020.9
20260902094622 67 218 2.0 3.0 0.00 0.18 0.01 66 1020.9
20260902094121 66 196 1.0 2.0 0.00 0.18 0.01 66 1021.0
20260902093622 67 222 3.0 4.0 0.00 0.18 0.01 68 1021.2
20260902093121 67 219 2.0 3.0 0.00 0.18 0.01 67 1021.0
20260902092522 67 208 1.0 2.0 0.00 0.18 0.01 69 1021.0
20260902091921 67 207 1.0 4.0 0.00 0.18 0.01 70 1020.7
20260902091324 67 213 1.0 3.0 0.00 0.18 0.01 69 1021.0
20260902090821 67 208 2.0 4.0 0.00 0.18 0.01 68 1021.2
20260902090225 68 195 1.0 4.0 0.00 0.18 0.01 69 1021.1
20260902085724 68 218 3.0 4.0 0.00 0.18 0.01 70 1021.1
20260902085224 67 225 2.0 2.0 0.00 0.18 0.01 72 1021.0
20260902084721 67 214 2.0 4.0 0.00 0.18 0.01 71 1021.1
20260902084122 65 195 1.0 1.0 0.00 0.18 0.01 75 1021.2
20260902083621 67 165 2.0 4.0 0.00 0.18 0.01 73 1021.2
20260902083025 65 194 0.0 3.0 0.00 0.18 0.01 75 1020.9
20260902082521 63 167 1.0 2.0 0.00 0.18 0.01 79 1021.0
20260902081924 64 208 1.0 3.0 0.00 0.18 0.01 77 1021.2
20260902081421 64 165 1.0 2.0 0.00 0.18 0.01 79 1021.1
20260902080921 64 214 2.0 3.0 0.00 0.18 0.01 77 1021.2
20260902080421 64 176 0.0 2.0 0.00 0.18 0.01 80 1020.8
20260902075824 63 188 0.0 2.0 0.00 0.19 0.01 81 1021.2
20260902075320 61 188 0.0 3.0 0.00 0.19 0.01 85 1021.1
20260902074820 61 193 0.0 1.0 0.00 0.19 0.01 87 1021.2
20260902074227 61 201 2.0 2.0 0.00 0.19 0.01 87 1021.3
20260902073721 61 203 0.0 2.0 0.00 0.19 0.01 88 1021.1
20260902073220 61 189 0.0 2.0 0.00 0.19 0.01 88 1021.2
20260902072720 61 176 0.0 3.0 0.00 0.19 0.01 89 1021.1
20260902072220 60 172 1.0 1.0 0.00 0.19 0.01 90 1021.1
20260902071720 60 194 1.0 2.0 0.00 0.19 0.01 89 1021.1
20260902071220 60 186 0.0 1.0 0.00 0.19 0.01 90 1021.3
20260902070720 60 183 0.0 2.0 0.00 0.19 0.01 91 1021.3
20260902070122 59 191 1.0 1.0 0.00 0.19 0.01 92 1021.2
20260902065621 58 176 1.0 2.0 0.00 0.19 0.01 93 1021.2
20260902065121 59 195 1.0 2.0 0.00 0.19 0.01 93 1021.3
20260902064621 59 178 1.0 1.0 0.00 0.19 0.01 94 1021.1
20260902064121 58 174 0.0 0.0 0.00 0.19 0.01 95 1021.1
20260902063524 59 163 1.0 2.0 0.00 0.19 0.01 95 1021.1
20260902063024 59 161 1.0 3.0 0.00 0.19 0.01 96 1021.0
20260902062424 58 182 0.0 0.0 0.00 0.19 0.01 99 1021.1
20260902061827 57 186 0.0 1.0 0.00 0.19 0.01 98 1021.2
20260902061321 57 180 1.0 1.0 0.00 0.19 0.01 99 1021.2
20260902060721 57 188 0.0 1.0 0.00 0.19 0.01 99 1021.2
20260902060121 56 183 0.0 0.0 0.00 0.19 0.01 99 1021.1
20260902055621 56 175 0.0 1.0 0.00 0.19 0.01 99 1021.2
20260902055121 54 188 0.0 0.0 0.00 0.19 0.01 99 1021.4
20260902054522 54 184 0.0 0.0 0.00 0.19 0.01 99 1021.4
20260902054021 53 182 0.0 0.0 0.00 0.19 0.01 99 1021.4
20260902053424 53 195 0.0 0.0 0.00 0.19 0.01 99 1021.5
20260902052921 53 190 0.0 0.0 0.00 0.19 0.01 99 1021.3
20260902052321 53 190 0.0 0.0 0.00 0.19 0.01 99 1021.2
20260902051724 53 184 0.0 0.0 0.00 0.19 0.01 99 1021.2
20260902051122 53 183 0.0 0.0 0.00 0.19 0.01 99 1021.2
20260902050524 52 182 0.0 0.0 0.00 0.19 0.01 99 1021.1
20260902050022 51 181 0.0 0.0 0.00 0.19 0.01 99 1021.2
20260902045521 50 181 0.0 0.0 0.00 0.19 0.01 99 1021.2
20260902044924 50 181 0.0 0.0 0.00 0.19 0.01 98 1020.9
20260902044421 50 181 0.0 0.0 0.00 0.19 0.01 98 1021.2
20260902043921 50 181 0.0 0.0 0.00 0.19 0.01 98 1021.1
20260902043421 50 180 0.0 0.0 0.00 0.19 0.01 98 1021.0
20260902042821 50 180 0.0 1.0 0.00 0.19 0.01 98 1021.2
20260902042222 50 183 0.0 0.0 0.00 0.19 0.01 98 1021.3
20260902041621 49 181 0.0 0.0 0.00 0.19 0.01 98 1021.5
20260902041022 49 182 0.0 0.0 0.00 0.19 0.01 98 1021.5
20260902040521 50 182 0.0 0.0 0.00 0.19 0.01 98 1021.3
20260902035922 50 179 0.0 0.0 0.00 0.19 0.01 98 1021.5
20260902035421 50 187 0.0 0.0 0.00 0.19 0.01 98 1021.4
20260902034921 49 189 0.0 0.0 0.00 0.19 0.01 98 1021.4
20260902034421 49 191 0.0 0.0 0.00 0.19 0.01 98 1021.5
20260902033822 50 191 0.0 0.0 0.00 0.19 0.01 98 1021.4
20260902033321 50 192 0.0 0.0 0.00 0.19 0.01 98 1021.5
20260902032721 50 191 0.0 0.0 0.00 0.19 0.01 98 1021.3
20260902032221 50 189 0.0 0.0 0.00 0.19 0.01 98 1021.0
20260902031721 50 189 0.0 0.0 0.00 0.19 0.01 98 1020.8
20260902031221 50 188 0.0 0.0 0.00 0.19 0.01 98 1021.2
20260902030621 50 189 0.0 0.0 0.00 0.19 0.01 98 1020.9
20260902030121 50 191 0.0 0.0 0.00 0.19 0.01 98 1021.0
20260902025621 51 191 0.0 0.0 0.00 0.19 0.01 98 1021.1
20260902025022 51 191 0.0 0.0 0.01 0.19 0.01 98 1020.8
20260902024522 52 191 0.0 0.0 0.01 0.19 0.01 98 1021.0
20260902024021 51 191 0.0 0.0 0.01 0.19 0.01 98 1021.0
20260902023421 51 186 0.0 0.0 0.01 0.19 0.01 98 1020.8
20260902022921 51 185 0.0 0.0 0.01 0.19 0.01 98 1020.9
20260902022321 52 183 0.0 0.0 0.01 0.19 0.01 98 1021.1
20260902021721 52 165 0.0 0.0 0.01 0.19 0.01 98 1021.0
20260902021220 52 165 0.0 0.0 0.01 0.19 0.01 98 1020.8
20260902020622 51 165 0.0 0.0 0.01 0.19 0.01 98 1021.0
20260902020121 52 165 0.0 0.0 0.01 0.19 0.01 97 1020.8
20260902015620 52 165 0.0 0.0 0.00 0.18 0.00 98 1020.9
20260902015021 52 165 0.0 0.0 0.00 0.18 0.00 97 1020.9
20260902014421 52 165 0.0 0.0 0.00 0.18 0.00 97 1020.9
20260902013821 53 216 0.0 0.0 0.00 0.18 0.00 97 1021.0
20260902013321 53 224 0.0 0.0 0.00 0.18 0.00 97 1021.3
20260902012820 53 224 0.0 0.0 0.00 0.18 0.00 97 1021.3
20260902012221 54 224 0.0 0.0 0.00 0.18 0.00 98 1021.1
20260902011720 54 225 0.0 1.0 0.00 0.18 0.00 98 1021.2
20260902011126 53 234 1.0 1.0 0.00 0.18 0.00 98 1021.0
20260902010621 53 236 0.0 0.0 0.00 0.18 0.00 97 1021.1
20260902010121 53 236 0.0 0.0 0.00 0.18 0.00 97 1021.3
20260902005621 53 236 0.0 0.0 0.00 0.18 0.00 97 1021.0
20260902005022 54 237 0.0 0.0 0.00 0.18 0.00 97 1021.1
20260902004422 54 254 0.0 0.0 0.00 0.18 0.00 97 1021.2
20260902003921 54 257 0.0 0.0 0.00 0.18 0.00 97 1021.1
20260902003421 54 259 0.0 0.0 0.00 0.18 0.00 97 1021.0
20260902002921 54 259 0.0 0.0 0.00 0.18 0.00 97 1021.2
20260902002421 54 259 0.0 0.0 0.00 0.18 0.00 97 1020.9
20260902001821 54 274 0.0 0.0 0.00 0.18 0.00 97 1021.1
20260902001221 54 284 0.0 0.0 0.00 0.18 0.00 96 1021.0
20260902000621 55 263 0.0 0.0 0.00 0.18 0.00 96 1020.8
20260902000022 55 259 0.0 0.0 0.00 0.18 0.00 96 1020.9
20260901235522 55 259 0.0 0.0 0.00 0.18 0.00 96 1020.9
20260901234922 55 259 0.0 0.0 0.00 0.18 0.00 96 1020.9
20260901234421 55 259 0.0 0.0 0.00 0.18 0.00 96 1021.0
20260901233821 55 265 0.0 0.0 0.00 0.18 0.00 96 1020.6
20260901233221 56 273 0.0 0.0 0.00 0.18 0.00 96 1020.6
20260901232621 56 274 0.0 0.0 0.00 0.18 0.00 96 1020.7
20260901232022 56 283 0.0 0.0 0.00 0.18 0.00 95 1020.6
20260901231521 56 285 0.0 0.0 0.00 0.18 0.00 95 1020.7
20260901230921 57 285 0.0 0.0 0.00 0.18 0.00 95 1020.6
20260901230420 57 285 0.0 0.0 0.00 0.18 0.00 95 1020.5
20260901225822 57 273 0.0 1.0 0.00 0.18 0.00 95 1020.8
20260901225321 58 245 0.0 0.0 0.00 0.18 0.00 96 1020.7
20260901224821 58 267 0.0 3.0 0.00 0.18 0.00 96 1020.6
20260901224221 58 267 0.0 1.0 0.00 0.18 0.00 96 1020.6
20260901223621 57 241 0.0 1.0 0.00 0.18 0.00 95 1020.8
20260901223022 58 258 0.0 0.0 0.00 0.18 0.00 95 1020.8
20260901222421 58 251 0.0 1.0 0.00 0.18 0.00 96 1020.7
20260901221821 58 285 0.0 0.0 0.00 0.18 0.00 96 1020.4
20260901221221 58 261 0.0 1.0 0.00 0.18 0.00 96 1020.7
20260901220621 58 270 1.0 1.0 0.00 0.18 0.00 96 1020.7
20260901220021 58 268 0.0 1.0 0.00 0.18 0.00 96 1020.7
20260901215421 58 244 0.0 1.0 0.00 0.18 0.18 96 1020.7
20260901214821 59 230 0.0 0.0 0.00 0.18 0.18 96 1020.5
20260901214221 59 242 0.0 1.0 0.00 0.18 0.18 96 1020.6
20260901213621 59 250 1.0 1.0 0.00 0.18 0.18 96 1020.8
20260901213021 59 247 0.0 1.0 0.00 0.18 0.18 96 1020.4
20260901212421 59 224 0.0 1.0 0.00 0.18 0.18 96 1020.5
20260901211920 59 233 0.0 0.0 0.00 0.18 0.18 96 1020.4
20260901211321 59 226 0.0 0.0 0.00 0.18 0.18 96 1020.4
20260901210721 60 226 0.0 0.0 0.00 0.18 0.18 96 1020.5
20260901210221 60 226 0.0 0.0 0.00 0.18 0.18 96 1020.5
20260901205621 60 225 0.0 0.0 0.00 0.18 0.18 96 1020.6
20260901205021 60 226 0.0 0.0 0.00 0.18 0.18 96 1020.3
20260901204521 60 226 0.0 0.0 0.00 0.18 0.18 96 1020.3
20260901203921 60 225 0.0 0.0 0.00 0.18 0.18 96 1020.4
20260901203321 61 223 0.0 0.0 0.00 0.18 0.18 95 1020.1
20260901202820 61 222 0.0 0.0 0.00 0.18 0.18 95 1020.3
20260901202221 61 223 0.0 0.0 0.00 0.18 0.18 95 1020.3
20260901201621 61 219 1.0 1.0 0.00 0.18 0.18 95 1020.3
20260901201022 60 243 0.0 0.0 0.00 0.18 0.18 95 1020.4
20260901200521 61 247 0.0 0.0 0.00 0.18 0.18 95 1020.2
20260901195922 60 247 0.0 0.0 0.00 0.18 0.18 95 1020.3
20260901195421 61 249 0.0 0.0 0.00 0.18 0.18 95 1020.0
20260901194922 61 250 0.0 0.0 0.00 0.18 0.18 95 1020.1
20260901194322 61 263 0.0 0.0 0.00 0.18 0.18 95 1020.1
20260901193722 61 263 0.0 1.0 0.00 0.18 0.18 95 1020.2
20260901193122 61 243 1.0 1.0 0.00 0.18 0.18 95 1020.2
20260901192523 61 254 0.0 1.0 0.00 0.18 0.18 95 1020.0
20260901192021 61 213 1.0 2.0 0.00 0.18 0.18 95 1020.1
20260901191521 61 239 1.0 1.0 0.00 0.18 0.18 95 1019.9
20260901191021 61 241 0.0 0.0 0.00 0.18 0.18 95 1020.0
20260901190421 61 233 0.0 1.0 0.00 0.18 0.18 95 1019.9
20260901185821 61 241 0.0 0.0 0.00 0.18 0.18 95 1019.8
20260901185321 61 238 0.0 0.0 0.00 0.18 0.18 94 1019.8
20260901184721 61 254 0.0 0.0 0.00 0.18 0.18 94 1019.7
20260901184121 61 291 0.0 1.0 0.00 0.18 0.18 94 1019.7
20260901183521 61 247 0.0 0.0 0.00 0.18 0.18 94 1019.9
20260901182921 61 249 0.0 0.0 0.01 0.18 0.18 93 1019.7
20260901182421 61 254 0.0 0.0 0.03 0.18 0.18 93 1019.7
20260901181821 61 284 0.0 1.0 0.03 0.18 0.18 92 1019.7
20260901181320 61 273 0.0 0.0 0.03 0.18 0.18 92 1019.6
20260901180820 61 240 0.0 1.0 0.03 0.18 0.18 92 1019.4
20260901180221 61 240 1.0 1.0 0.03 0.18 0.18 92 1019.3
20260901175621 61 218 2.0 3.0 0.05 0.25 0.18 92 1019.1
20260901175022 61 215 2.0 2.0 0.09 0.25 0.18 92 1019.3
20260901174421 62 217 1.0 2.0 0.12 0.25 0.18 92 1019.3
20260901173823 61 238 2.0 6.0 0.16 0.25 0.18 91 1019.0
20260901173221 61 259 3.0 8.0 0.17 0.25 0.18 91 1019.2
20260901172621 61 254 2.0 4.0 0.14 0.22 0.15 91 1019.3
20260901172120 61 282 1.0 4.0 0.14 0.22 0.15 92 1019.3
20260901171620 60 251 2.0 2.0 0.14 0.22 0.15 92 1019.5
20260901171021 60 336 0.0 2.0 0.14 0.22 0.15 91 1019.2
20260901170421 61 271 1.0 2.0 0.14 0.22 0.15 90 1019.2
20260901165824 61 251 1.0 6.0 0.10 0.19 0.11 89 1019.4
20260901165221 62 267 3.0 10.0 0.07 0.16 0.08 87 1019.5
20260901164621 63 267 4.0 8.0 0.06 0.15 0.07 85 1019.4
20260901164021 67 268 4.0 10.0 0.01 0.10 0.02 75 1019.1
20260901163421 72 266 7.0 14.0 0.00 0.09 0.01 61 1018.9
20260901162821 72 274 2.0 7.0 0.00 0.09 0.01 55 1018.3
20260901162224 72 305 2.0 4.0 0.00 0.09 0.01 56 1018.3
20260901161623 72 251 1.0 3.0 0.00 0.09 0.01 55 1018.5
20260901161022 72 280 4.0 6.0 0.00 0.09 0.01 55 1018.2
20260901160421 73 265 1.0 9.0 0.00 0.09 0.01 54 1018.3
20260901155822 73 246 4.0 8.0 0.00 0.09 0.01 53 1018.3
20260901155221 75 281 5.0 10.0 0.00 0.09 0.01 50 1018.3
20260901154621 75 260 7.0 10.0 0.00 0.09 0.01 49 1018.2
20260901154027 74 261 3.0 10.0 0.00 0.09 0.01 51 1018.1
20260901153521 74 274 3.0 4.0 0.00 0.09 0.01 52 1018.3
20260901152921 75 247 2.0 6.0 0.00 0.09 0.01 51 1018.2
20260901152420 77 204 4.0 7.0 0.00 0.09 0.01 48 1018.4
20260901151827 76 254 4.0 4.0 0.00 0.09 0.01 47 1018.2
20260901151224 76 344 4.0 13.0 0.00 0.09 0.01 47 1018.0
20260901150721 75 247 4.0 7.0 0.00 0.09 0.01 48 1018.1
20260901150124 75 304 4.0 6.0 0.00 0.09 0.01 49 1018.2
20260901145622 76 328 4.0 7.0 0.00 0.31 0.01 48 1018.2
20260901145022 74 288 1.0 8.0 0.00 0.31 0.01 52 1018.3
20260901144522 75 267 4.0 9.0 0.00 0.31 0.01 50 1018.1
20260901143922 74 220 4.0 8.0 0.00 0.31 0.01 51 1018.2
20260901143322 76 267 3.0 7.0 0.00 0.31 0.01 50 1018.3
20260901142821 75 262 4.0 8.0 0.00 0.31 0.01 51 1018.2
20260901142222 75 235 5.0 8.0 0.00 0.31 0.01 50 1018.4
20260901141623 76 246 3.0 9.0 0.00 0.31 0.01 49 1018.2
20260901141024 75 308 2.0 7.0 0.00 0.31 0.01 50 1018.2
20260901140522 74 257 4.0 9.0 0.00 0.31 0.01 51 1018.3
20260901140021 76 344 5.0 9.0 0.00 0.31 0.01 49 1018.3
20260901135421 76 250 2.0 10.0 0.00 0.31 0.01 51 1018.2
20260901134821 75 236 7.0 10.0 0.00 0.31 0.01 49 1018.5
20260901134221 75 284 4.0 7.0 0.00 0.31 0.01 50 1018.5
20260901133721 75 289 6.0 10.0 0.00 0.31 0.01 50 1018.3
20260901133220 77 231 8.0 9.0 0.00 0.31 0.01 49 1018.4
20260901132627 76 260 3.0 11.0 0.00 0.31 0.01 49 1018.3
20260901132120 75 256 5.0 7.0 0.00 0.31 0.01 49 1018.5
20260901131620 75 269 6.0 11.0 0.00 0.31 0.01 49 1018.5
20260901131021 75 344 6.0 11.0 0.00 0.31 0.01 50 1018.5
20260901130421 75 224 3.0 13.0 0.00 0.31 0.01 52 1018.4
20260901125821 74 270 6.0 10.0 0.00 0.31 0.01 52 1018.6
20260901125221 73 256 6.0 8.0 0.00 0.31 0.01 53 1018.5
20260901124622 73 279 8.0 11.0 0.00 0.31 0.01 56 1018.4
20260901124021 73 242 4.0 6.0 0.00 0.31 0.01 56 1018.6
20260901123421 76 232 5.0 9.0 0.00 0.31 0.01 52 1018.5